This demonstration page uses our WeatherBlox Daily Observations layout. Learn more.

Hourly Observations for February 2, 2015

Temp ( °F °C ) Dew Point ( °F °C ) Humidity (%) Winds ( mph kmh ) Pressure ( in mb ) Visibility ( mi km ) Precip ( " mm )
12:15 am 00:15 Clear 0 -17.6 -5 -20.5 78 78 W 6 9 30.59 1036 10 16.0934 0 0
12:35 am 00:35 Clear 1 -17.5 -4 -20.1 80 80 WNW 5 7 30.56 1035 10 16.0934 0 0
12:55 am 00:55 Clear 0 -17.7 -5 -20.4 80 80 Calm 30.53 1034 10 16.0934 0 0
1:15 am 01:15 Clear 1 -17.3 -4 -19.9 80 80 SSW 3 6 30.53 1034 10 16.0934 0 0
1:35 am 01:35 Clear 0 -17.8 -4 -20.2 82 82 SW 6 9 30.53 1034 10 16.0934 0 0
1:55 am 01:55 Clear 1 -17.5 -4 -20 81 81 Calm 30.53 1034 10 16.0934 0 0
2:15 am 02:15 Clear -1 -18.2 -5 -20.8 80 80 WSW 3 6 30.53 1034 10 16.0934 0 0
2:35 am 02:35 Clear -1 -18.3 -5 -20.8 81 81 WSW 5 7 30.53 1034 10 16.0934 0 0
2:55 am 02:55 Clear 0 -17.6 -4 -20.1 81 81 WSW 6 9 30.5 1033 10 16.0934 0 0
3:15 am 03:15 Clear 0 -17.6 -5 -20.3 80 80 WSW 7 11 30.5 1033 10 16.0934 0 0
3:35 am 03:35 Clear 1 -17.5 -4 -20.2 80 80 WSW 6 9 30.5 1033 10 16.0934 0 0
3:55 am 03:55 Clear 1 -17 -4 -19.8 79 79 SW 6 9 30.5 1033 10 16.0934 0 0
4:15 am 04:15 Clear 1 -17.1 -4 -20 78 78 SW 6 9 30.5 1033 10 16.0934 0 0
4:35 am 04:35 Clear 0 -18 -5 -20.6 80 80 SSW 7 11 30.48 1032 10 16.0934 0 0
4:55 am 04:55 Clear -1 -18.2 -5 -20.7 81 81 SSW 5 7 30.48 1032 10 16.0934 0 0
5:15 am 05:15 Clear -1 -18.2 -5 -20.6 82 82 S 7 11 30.45 1031 10 16.0934 0 0
5:35 am 05:35 Clear 0 -18 -5 -20.5 81 81 S 6 9 30.45 1031 10 16.0934 0 0
5:55 am 05:55 Clear -2 -19 -7 -21.5 81 81 S 6 9 30.42 1030 10 16.0934 0 0
6:15 am 06:15 Clear -1 -18.2 -5 -20.5 82 82 SSW 6 9 30.42 1030 10 16.0934 0 0
6:35 am 06:35 Clear 1 -17 -3 -19.7 80 80 S 6 9 30.42 1030 10 16.0934 0 0
6:55 am 06:55 Clear 1 -17.2 -4 -19.9 80 80 S 8 13 30.42 1030 10 16.0934 0 0
7:15 am 07:15 Clear 2 -16.7 -3 -19.5 79 79 S 8 13 30.42 1030 10 16.0934 0 0
7:35 am 07:35 Clear 2 -16.5 -3 -19.4 78 78 S 12 19 30.39 1029 10 16.0934 0 0
7:55 am 07:55 Sunny 3 -16.3 -3 -19.2 79 79 S 13 20 30.39 1029 10 16.0934 0 0
8:15 am 08:15 Sunny 4 -15.5 -1 -18.4 79 79 S 13 20 30.39 1029 10 16.0934 0 0
8:35 am 08:35 Sunny 6 -14.7 -1 -18.1 76 76 SSW 16 26 30.39 1029 10 16.0934 0 0
8:55 am 08:55 Sunny 7 -14 0 -17.8 73 73 SSW 17 28 30.39 1029 10 16.0934 0 0
9:15 am 09:15 Partly Cloudy 8 -13.1 2 -16.8 74 74 S 15 24 30.33 1027 10 16.0934 0 0
9:35 am 09:35 Partly Cloudy 10 -12.5 3 -16.2 74 74 SSW 12 19 30.33 1027 10 16.0934 0 0
9:55 am 09:55 Partly Cloudy 10 -12.2 3 -15.9 74 74 S 14 22 30.33 1027 10 16.0934 0 0
10:15 am 10:15 Partly Cloudy 12 -11.3 4 -15.3 73 73 S 18 30 30.27 1025 10 16.0934 0 0
10:35 am 10:35 Sunny 13 -10.5 5 -14.8 71 71 SSW 18 30 30.27 1025 10 16.0934 0 0
10:55 am 10:55 Sunny 15 -9.5 7 -13.8 71 71 SSW 21 33 30.27 1025 10 16.0934 0 0
11:15 am 11:15 Sunny 17 -8.6 8 -13.2 70 70 SW 20 31 30.27 1025 10 16.0934 0 0
11:35 am 11:35 Sunny 18 -7.9 10 -12.2 72 72 SSW 18 30 30.24 1024 10 16.0934 0 0
11:55 am 11:55 Sunny 20 -6.9 11 -11.6 70 70 SSW 14 22 30.24 1024 10 16.0934 0 0
12:15 pm 12:15 Sunny 20 -6.7 12 -11.3 70 70 SSW 16 26 30.24 1024 10 16.0934 0 0
12:35 pm 12:35 Sunny 21 -6.1 13 -10.5 71 71 SSW 17 28 30.18 1022 10 16.0934 0 0
12:55 pm 12:55 Sunny 22 -5.5 14 -10 71 71 SSW 17 28 30.18 1022 10 16.0934 0 0
1:15 pm 13:15 Sunny 24 -4.6 16 -8.9 72 72 SW 15 24 30.18 1022 10 16.0934 0 0
1:35 pm 13:35 Sunny 25 -4 17 -8.3 72 72 SW 16 26 30.18 1022 10 16.0934 0 0
1:55 pm 13:55 Sunny 26 -3.4 18 -7.6 73 73 SSW 13 20 30.12 1020 10 16.0934 0 0
2:15 pm 14:15 Sunny 28 -2.5 20 -6.8 73 73 SW 18 30 30.12 1020 10 16.0934 0 0
2:35 pm 14:35 Sunny 29 -1.7 21 -6 73 73 SSW 16 26 30.09 1019 10 16.0934 0 0
2:55 pm 14:55 Sunny 30 -1.1 23 -5.2 74 74 SW 14 22 30.09 1019 10 16.0934 0 0
3:15 pm 15:15 Sunny 31 -0.5 24 -4.6 74 74 SW 14 22 30.06 1018 10 16.0934 0 0
3:35 pm 15:35 Sunny 32 0 24 -4.2 74 74 SW 12 19 30.06 1018 10 16.0934 0 0
3:55 pm 15:55 Sunny 32 0.1 26 -3.6 76 76 SSW 10 17 30.06 1018 10 16.0934 0 0
4:15 pm 16:15 Sunny 33 0.5 26 -3.2 77 77 SW 12 19 30.06 1018 10 16.0934 0 0
4:35 pm 16:35 Sunny 33 0.6 27 -3 77 77 SW 7 11 30.09 1019 10 16.0934 0 0
4:55 pm 16:55 Sunny 33 0.7 27 -2.6 79 79 SW 6 9 30.09 1019 10 16.0934 0 0
5:15 pm 17:15 Sunny 33 0.7 28 -2.5 79 79 SW 5 7 30.09 1019 10 16.0934 0 0
5:35 pm 17:35 Sunny 33 0.3 27 -2.7 81 81 Calm 30.12 1020 10 16.0934 0 0
5:55 pm 17:55 Sunny 28 -2 25 -4.1 86 86 Calm 30.15 1021 10 16.0934 0 0
6:15 pm 18:15 Clear 29 -1.7 26 -3.4 88 88 S 3 6 30.15 1021 10 16.0934 0 0
6:35 pm 18:35 Clear 28 -2 26 -3.5 90 90 S 5 7 30.15 1021 10 16.0934 0 0
6:55 pm 18:55 Clear 28 -2.5 24 -4.2 88 88 S 6 9 30.15 1021 10 16.0934 0 0
7:15 pm 19:15 Clear 25 -4 22 -5.6 89 89 Calm 30.18 1022 10 16.0934 0 0
7:35 pm 19:35 Clear 25 -3.9 23 -5 92 92 Calm 30.21 1023 10 16.0934 0 0
7:55 pm 19:55 Clear 24 -4.7 22 -5.7 93 93 Calm 30.21 1023 10 16.0934 0 0
8:15 pm 20:15 Clear 24 -4.7 22 -5.6 94 94 Calm 30.21 1023 10 16.0934 0 0
8:35 pm 20:35 Clear 20 -6.6 19 -7.5 93 93 Calm 30.21 1023 7 11.26538 0 0
8:55 pm 20:55 Clear with Mist and Fog 23 -5.2 21 -5.9 95 95 S 3 6 30.21 1023 4 6.43736 0 0
9:15 pm 21:15 Clear 24 -4.4 23 -5.2 94 94 SSW 8 13 30.21 1023 7 11.26538 0 0
9:35 pm 21:35 Clear 24 -4.4 23 -5.2 94 94 SSW 7 11 30.21 1023 10 16.0934 0 0
9:55 pm 21:55 Clear 23 -5 21 -6 93 93 Calm 30.21 1023 10 16.0934 0 0
10:15 pm 22:15 Clear 22 -5.7 19 -7.2 89 89 SW 3 6 30.24 1024 10 16.0934 0 0
10:35 pm 22:35 Clear 25 -3.7 24 -4.7 93 93 SW 5 7 30.21 1023 10 16.0934 0 0
10:55 pm 22:55 Clear 25 -3.8 23 -5.2 90 90 WSW 3 6 30.21 1023 10 16.0934 0 0
11:15 pm 23:15 Clear 20 -6.7 18 -8 91 91 Calm 30.24 1024 10 16.0934 0 0
11:35 pm 23:35 Clear 20 -6.7 18 -7.8 92 92 Calm 30.21 1023 10 16.0934 0 0
11:55 pm 23:55 Clear 20 -6.9 18 -8 92 92 Calm 30.24 1024 10 16.0934 0 0

Powered by AerisWeather